Station APXA2 - Anchor Point, Kachemak Bay Reserve, AK Image indicating link to RSS feed of recent meteorological observations for station APXA2


Conditions at APXA2 as of
(4:45 am AKDT)
1245 GMT on 05/20/2024:
Note: This report is more than two hours old
     

Click on the graph icon in the table below to see a time series plot of the last five days of that observation.

5-day plot - Wind Direction Wind Direction (WDIR): S ( 180 deg true )
5-day plot - Wind Speed Wind Speed (WSPD): 4.1 kts
5-day plot - Atmospheric Pressure Atmospheric Pressure (PRES):30.00 in
5-day plot - Air Temperature Air Temperature (ATMP): 40.8 °F
5-day plot - Dew Point Dew Point (DEWP): 37.2 °F
5-day plot - Wind Chill Wind Chill (CHILL): 37.8 °F
5-day plot -  Wind Speed, Wind Gust and Atmospheric Pressure Combined plot of Wind Speed, Gust, and Air Pressure
Previous observations
TIME
(AKDT)
5-day plot - Wind Direction
WDIR
 
5-day plot - Wind Speed
WSPD
kts
5-day plot - Wind Gust
GST
kts
5-day plot - Wave Height
WVHT
ft
5-day plot - Dominant Wave Period
DPD
sec
5-day plot - Average Wave Period
APD
sec
5-day plot - Mean Wave Direction
MWD
 
5-day plot - Atmospheric Pressure
PRES
in
5-day plot - Pressure Tendency
PTDY
in
5-day plot - Air Temperature
ATMP
°F
5-day plot - Water Temperature
WTMP
°F
5-day plot - Dew Point
DEWP
°F
5-day plot - Salinity
SAL
psu
5-day plot - Visibility
VIS
nmi
5-day plot - Tide (above MLLW)
TIDE
ft
2024-05-20 04:30 am S 5.1-----30.00- 41.0- 36.9---
2024-05-20 04:15 am S 4.1-----30.00- 40.5- 35.8---
2024-05-20 04:00 am S 2.9-----30.00+0.00 40.1- 35.4---
2024-05-20 03:45 am S 2.9-----30.00- 39.6- 35.2---
2024-05-20 03:30 amSSE 1.9-----30.00- 38.7- 34.3---
2024-05-20 03:15 am SE 2.9-----30.00- 39.0- 34.9---
2024-05-20 03:00 am SE 4.1-----30.00+0.03 38.7- 35.2---
2024-05-20 02:45 amESE 4.1-----30.00- 38.7- 34.9---
2024-05-20 02:30 amESE 4.1-----30.00- 39.7- 35.4---
2024-05-20 02:15 am SE 2.9-----30.00- 42.4- 37.4---
2024-05-20 02:00 am S 2.9-----30.00+0.03 43.2- 38.1---
2024-05-20 01:45 am S 5.1-----30.00- 43.3- 38.5---
2024-05-20 01:30 am S 5.1-----30.00- 43.3- 38.3---
2024-05-20 01:15 am S 4.1-----30.00- 43.3- 38.3---
2024-05-20 01:00 am S 4.1-----30.00+0.06 43.7- 38.7---
2024-05-20 12:45 amSSW 8.0-----30.00- 44.1- 39.6---
2024-05-20 12:30 am S 5.1-----30.00- 43.5- 39.0---
2024-05-20 12:15 am S 5.1-----29.97- 43.7- 39.2---
2024-05-20 12:00 am S 5.1-----29.97+0.03 43.9- 39.0---
2024-05-19 11:45 pm S 5.1-----29.97- 44.4- 38.7---
2024-05-19 11:30 pm S 4.1-----29.97- 45.0- 37.9---
2024-05-19 11:15 pmSSW 6.0-----29.97- 45.7- 37.6---
2024-05-19 11:00 pm S 4.1-----29.97+0.06 45.3- 37.9---
2024-05-19 10:45 pm SW 7.0-----29.97- 45.3- 39.2---
2024-05-19 10:30 pm S 2.9-----29.97- 45.3- 39.9---
2024-05-19 10:15 pmSSW 4.1-----29.94- 45.7- 40.6---
2024-05-19 10:00 pmWSW 6.0-----29.94+0.03 45.9- 40.1---
2024-05-19 09:45 pm W 7.0-----29.94- 45.9- 39.7---
2024-05-19 09:30 pm W 8.0-----29.94- 45.9- 40.1---
2024-05-19 09:15 pm W 8.0-----29.94- 45.9- 40.1---
2024-05-19 09:00 pm W 8.9-----29.94+0.06 45.9- 40.1---
2024-05-19 08:45 pm W 9.9-----29.91- 45.9- 40.5---
2024-05-19 08:30 pm W 9.9-----29.91- 45.9- 40.5---
2024-05-19 08:15 pmWNW 9.9-----29.91- 45.7- 40.3---
2024-05-19 08:00 pmWNW 8.9-----29.91+0.03 45.5- 40.5---
2024-05-19 07:45 pmWNW 8.9-----29.91- 45.5- 40.5---
2024-05-19 07:30 pmWNW 9.9-----29.91- 45.7- 40.3---
2024-05-19 07:15 pmWNW 9.9-----29.91- 45.9- 40.1---
2024-05-19 07:00 pmWNW 8.9-----29.91+0.06 46.0- 40.3---
2024-05-19 06:45 pmWNW 9.9-----29.88- 46.2- 40.5---
2024-05-19 06:30 pm NW 8.0-----29.88- 46.6- 41.2---
2024-05-19 06:15 pm NW 7.0-----29.88- 47.3- 40.8---
2024-05-19 06:00 pm NW 8.0-----29.88+0.03 46.8- 40.3---
2024-05-19 05:45 pm NW 8.0-----29.88- 46.0- 39.9---
2024-05-19 05:30 pmNNW 7.0-----29.88- 46.6- 39.7---
2024-05-19 05:15 pm N 8.0-----29.88- 46.9- 39.6---
2024-05-19 05:00 pmNNW 8.9-----29.88+0.06 46.2- 39.6---
2024-05-19 04:45 pmNNW 8.9-----29.88- 45.7- 39.9---
2024-05-19 04:30 pmNNW 8.9-----29.85- 45.7- 40.3---
2024-05-19 04:15 pm N 8.9-----29.85- 45.9- 39.7---
2024-05-19 04:00 pm N 9.9-----29.85+0.06 46.6- 39.2---
2024-05-19 03:45 pm N 8.9-----29.85- 46.4- 39.7---
2024-05-19 03:30 pm N 9.9-----29.85- 47.3- 38.8---
2024-05-19 03:15 pm N 12.0-----29.85- 47.1- 38.7---
2024-05-19 03:00 pm N 12.0-----29.85+0.09 46.6- 39.2---
2024-05-19 02:45 pm N 12.0-----29.83- 46.6- 38.8---
2024-05-19 02:30 pm N 11.1-----29.83- 46.4- 39.0---
2024-05-19 02:15 pm N 13.0-----29.83- 46.2- 38.8---
2024-05-19 02:00 pm N 14.0-----29.83+0.09 46.8- 38.3---
2024-05-19 01:45 pmNNE 11.1-----29.83- 46.0- 39.4---
2024-05-19 01:30 pm N 12.0-----29.80- 46.8- 39.9---
2024-05-19 01:15 pm N 13.0-----29.80- 46.9- 40.5---
2024-05-19 01:00 pm N 12.0-----29.80+0.06 47.3- 40.5---
2024-05-19 12:45 pm N 11.1-----29.80- 46.8- 40.6---
2024-05-19 12:30 pm N 12.0-----29.77- 46.6- 40.8---
2024-05-19 12:15 pm N 11.1-----29.77- 46.6- 40.5---
2024-05-19 12:00 pmNNE 9.9-----29.77+0.06 46.4- 39.9---
2024-05-19 11:45 amNNE 8.9-----29.77- 46.0- 39.9---
2024-05-19 11:30 amNNE 8.9-----29.77- 45.7- 39.2---
2024-05-19 11:15 amNNE 8.0-----29.74- 46.0- 39.4---
2024-05-19 11:00 amNNE 8.0-----29.74+0.03 46.2- 39.2---
2024-05-19 10:45 amNNE 8.0-----29.74- 46.0- 39.0---
2024-05-19 10:30 amNNE 8.0-----29.74- 46.0- 39.4---
2024-05-19 10:15 amNNE 9.9-----29.74- 45.5- 38.8---
2024-05-19 10:00 amNNE 11.1-----29.74+0.06 45.3- 38.7---
2024-05-19 09:45 amNNE 11.1-----29.74- 45.3- 38.3---
2024-05-19 09:30 amNNE 9.9-----29.71- 45.0- 38.7---
2024-05-19 09:15 amNNE 8.9-----29.71- 44.8- 38.5---
2024-05-19 09:00 am NE 6.0-----29.71+0.03 44.8- 38.5---